• Processing (Info)

  • MPEC 2014-A88 : 2014 AZ51

    The following Minor Planet Electronic Circular may be linked-to from your own Web pages, but must not otherwise be redistributed electronically.

    A form allowing access to any MPEC is at the bottom of this page.


    Read MPEC 2014-A87 Read MPEC 2014-B01


    M.P.E.C. 2014-A88                                Issued 2014 Jan. 15, 15:49 UT
    
         The Minor Planet Electronic Circulars contain information on unusual
             minor planets and routine data on comets.  They are published
       on behalf of Commission 20 of the International Astronomical Union by the
              Minor Planet Center, Smithsonian Astrophysical Observatory,
                              Cambridge, MA 02138, U.S.A.
    
                 Prepared using the Tamkin Foundation Computer Network
    
                                  MPC@CFA.HARVARD.EDU
                URL https://www.minorplanetcenter.net/    ISSN 1523-6714
    
                                       2014 AZ51
    
    Observations:
         K14A51Z* C2014 01 11.20875 02 11 48.73 +52 20 06.2          20.1 VqEA088G96
         K14A51Z  C2014 01 11.21514 02 11 50.40 +52 19 49.5          20.1 VqEA088G96
         K14A51Z  C2014 01 11.22155 02 11 52.04 +52 19 31.1          20.4 VqEA088G96
         K14A51Z  C2014 01 11.22793 02 11 53.70 +52 19 13.7          20.2 VqEA088G96
         K14A51Z  C2014 01 11.26300 02 12 02.93 +52 17 37.1          20.1 VqEA088G96
         K14A51Z  C2014 01 11.27219 02 12 05.31 +52 17 12.0          19.5 VqEA088G96
         K14A51Z  C2014 01 11.28466 02 12 08.65 +52 16 37.6          20.2 VqEA088G96
         K14A51Z  C2014 01 11.29386 02 12 11.08 +52 16 12.0          20.1 VqEA088G96
         K14A51Z IC2014 01 11.74816 02 14 14.16 +51 55 44.4                qEA088J95
         K14A51Z KC2014 01 11.76692 02 14 18.99 +51 54 54.1                qEA088J95
         K14A51Z KC2014 01 11.78840 02 14 24.68 +51 53 54.8          20.1 RqEA088J95
         K14A51Z KC2014 01 12.10003 02 15 47.44 +51 39 52.0                qEA088448
         K14A51Z KC2014 01 12.13258 02 15 55.65 +51 38 20.7          20.8 RqEA088448
         K14A51Z KC2014 01 12.16110 02 16 03.36 +51 37 03.3          21.0 RqEA088448
         K14A51Z KC2014 01 13.06865 02 20 04.49 +50 55 29.8          19.8 RqEA088448
         K14A51Z KC2014 01 13.09914 02 20 12.25 +50 54 06.2          20.1 RqEA088448
         K14A51Z KC2014 01 13.12992 02 20 19.97 +50 52 40.1          20.4 RqEA088448
         K14A51Z  C2014 01 13.14355 02 20 23.64 +50 52 02.0          20.0 VqEA088G96
         K14A51Z  C2014 01 13.14934 02 20 25.12 +50 51 45.7          20.0 VqEA088G96
         K14A51Z  C2014 01 13.15233 02 20 25.82 +50 51 37.6          20.0 VqEA088G96
         K14A51Z  C2014 01 13.15533 02 20 26.62 +50 51 29.3          18.9 VqEA088G96
         K14A51Z IC2014 01 14.83574 02 27 47.33 +49 33 03.6          19.2 VuEA088958
         K14A51Z KC2014 01 14.84329 02 27 49.50 +49 32 44.8          20.1 VuEA088958
         K14A51Z KC2014 01 14.85059 02 27 51.30 +49 32 24.3          20.1 VuEA088958
         K14A51Z KC2014 01 14.85825 02 27 53.28 +49 32 02.2          20.1 VuEA088958
         K14A51Z KC2014 01 15.09763 02 28 55.76 +49 20 50.0          20.0 RqEA088448
         K14A51Z KC2014 01 15.13824 02 29 06.04 +49 18 54.0          19.7 RqEA088448
         K14A51Z KC2014 01 15.17809 02 29 16.12 +49 16 58.6          20.6 RqEA088448
    
    Observer details:
    448 Desert Moon Observatory.  Observer B. L. Stevens.  0.3-m
        Schmidt-Cassegrain + CCD.
    958 Observatoire de Dax.  Observers P. Dupouy, J. B. de Vanssay.  Measurer
        P. Dupouy.  0.43-m f/2.7 reflector + CCD.
    G96 Mt. Lemmon Survey.  Observer J. A. Johnson.  Measurers A. Boattini,
        E. J. Christensen, A. R. Gibbs, A. D. Grauer, R. E. Hill, J. A. Johnson,
        R. A. Kowalski, S. M. Larson, F. C. Shelly.  1.5-m reflector + CCD.
    J95 Great Shefford.  Observer P. Birtwhistle.  0.40-m f/6.0 Schmidt-Cassegrain
        + CCD.
    
    Orbital elements:
    2014 AZ51                                                Earth MOID = 0.3044 AU
    Epoch 2013 Nov. 4.0 TT = JDT 2456600.5                  MPC
    M 327.61587              (2000.0)            P               Q
    n   0.33993448     Peri.  171.00451     -0.36763780     -0.82006835
    a   2.0333208      Node   299.42865     +0.81885002     -0.06191579
    e   0.3676867      Incl.   30.23353     +0.44082547     -0.56890627
    P   2.90           H   19.2           G   0.15           U   9
    Residuals in seconds of arc
    140111 G96  0.2-  0.4-    140111 J95  1.0+  0.3-    140113 G96  0.3-  0.2+
    140111 G96  0.1-  0.4+    140112 448  0.5+  0.7+    140114 958  1.4-  2.6-
    140111 G96  0.5-  0.4-    140112 448  1.0-  1.2-    140114 958  1.1+  0.0
    140111 G96  0.5-  0.3-    140112 448  2.4+  0.0     140114 958  0.6+  0.3+
    140111 G96  0.3-  0.4-    140113 448  0.6+  0.1+    140114 958  1.0+  0.0
    140111 G96  0.7-  0.2-    140113 448  0.4+  0.8+    140115 448  0.5-  1.2+
    140111 G96  0.2-  0.2-    140113 448  0.9-  0.3+    140115 448  0.1+  0.9+
    140111 G96  0.3-  0.4-    140113 G96  0.0   0.0     140115 448  0.4+  0.4-
    140111 J95  0.5+  0.2+    140113 G96  0.0   0.2-
    140111 J95  0.1+  0.7+    140113 G96  0.6-  0.1+
    
    Ephemeris:
    2014 AZ51                a,e,i = 2.03, 0.37, 30                  q = 1.2857
    Date    TT    R. A. (2000) Decl.     Delta      r     Elong.  Phase     V
    2013 12 16    00 14 13.6 +67 25 13   0.6255  1.3732   115.3    40.4    20.5
    ...
    2013 12 31    01 20 32.0 +59 56 37   0.5761  1.3323   114.8    42.1    20.3
    ...
    2014 01 08    01 57 22.0 +54 40 43   0.5606  1.3152   114.0    43.1    20.2
    ...
    2014 01 14    02 24 09.2 +50 12 16   0.5555  1.3048   113.0    43.9    20.2
    2014 01 15    02 28 30.4 +49 25 23   0.5553  1.3033   112.8    44.1    20.2
    2014 01 16    02 32 49.4 +48 37 58   0.5553  1.3018   112.5    44.3    20.2
    ...
    2014 01 22    02 57 55.0 +43 45 00   0.5589  1.2944   111.0    45.2    20.2
    ...
    2014 01 30    03 29 08.6 +37 04 52   0.5745  1.2879   108.5    46.5    20.3
    ...
    2014 02 14    04 21 21.0 +25 18 17   0.6361  1.2872   102.7    48.4    20.6
    
    A. U. Tomatic                (C) Copyright 2014 MPC           M.P.E.C. 2014-A88
    

    Read MPEC 2014-A87 Read MPEC 2014-B01


    MPEC number:

    Enter an MPEC number in one of the following forms:

    • 1997-B01 (the full form)
    • J97B01 (the packed version of the full form)
    • B01 (the abbreviated form)